Cambridge, MN

6:30 PM CDT on August 31, 2016 (GMT -0500)
Cambridge Municipal

Weather History for KCBG - August, 2014

Change the Weather History Date:

Friday, August 15, 2014

  Actual Average Record
Temperature  
Mean Temperature 74 °F -  
Max Temperature 86 °F 79 °F 96 °F (2003)
Min Temperature 62 °F 57 °F 39 °F (1979)
Cooling Degree Days 9    
Growing Degree Days 24 (Base 50)    
Moisture  
Dew Point 60 °F    
Average Humidity 63    
Maximum Humidity 72    
Minimum Humidity 51    
Precipitation  
Precipitation 0.00 in - - ()
Sea Level Pressure  
Sea Level Pressure 29.92 in    
Wind  
Wind Speed 4 mph (South)    
Max Wind Speed 10 mph    
Max Gust Speed 9 mph    
Visibility 10 miles    
Events      
Averages and records for this station are not official NWS values.
T = Trace of Precipitation, MM = Missing Value Source: NWS Daily Summary

Daily Weather History Graph

Daily Weather History Graph

Search for Another Location

Airport or City:

Trip Planner

Search our weather history database for the weather conditions in past years. The results will help you decide how hot, cold, wet, or windy it might be!

Date:

Astronomy

Aug. 15, 2014 Rise Set
Actual Time 6:13 AM CDT 8:20 PM CDT
Civil Twilight 5:41 AM CDT 8:52 PM CDT
Nautical Twilight 5:01 AM CDT 9:32 PM CDT
Astronomical Twilight 4:16 AM CDT 10:16 PM CDT
Moon 11:02 PM CDT (8/15) 12:16 PM CDT (8/15)
Length of Visible Light 15h 11m
Length of Day
14h 06m
Waning Gibbous, 69% of the Moon is Illuminated
Aug 15
Waning Gibbous
Aug 17
Last Quarter
Aug 25
New
Sep 2
First Quarter
Sep 8
Full

Hourly Weather History & Observations

Time (CDT) Temp. Heat Index Dew Point Humidity Pressure Visibility Wind Dir Wind Speed Gust Speed Precip Events Conditions
12:15 AM 68.0 °F - 55.4 °F 64% 30.00 in 10.0 mi SE 3.5 mph - N/A   Clear
12:35 AM 66.2 °F - 55.4 °F 68% 29.99 in 10.0 mi Calm Calm - N/A   Clear
12:56 AM 66.2 °F - 55.4 °F 68% 29.99 in 10.0 mi SE 3.5 mph - N/A   Clear
1:15 AM 66.2 °F - 55.4 °F 68% 29.99 in 10.0 mi SE 3.5 mph - N/A   Clear
1:36 AM 66.2 °F - 55.4 °F 68% 29.99 in 10.0 mi SSE 3.5 mph - N/A   Clear
1:55 AM 66.2 °F - 55.4 °F 68% 29.98 in 10.0 mi Calm Calm - N/A   Scattered Clouds
2:15 AM 66.2 °F - 55.4 °F 68% 29.98 in 10.0 mi Calm Calm - N/A   Scattered Clouds
2:35 AM 64.4 °F - 53.6 °F 68% 29.99 in 10.0 mi Calm Calm - N/A   Clear
2:55 AM 64.4 °F - 53.6 °F 68% 29.98 in 10.0 mi Calm Calm - N/A   Clear
3:15 AM 64.4 °F - 53.6 °F 68% 29.98 in 10.0 mi SE 3.5 mph - N/A   Clear
3:35 AM 64.4 °F - 53.6 °F 68% 29.97 in 10.0 mi Calm Calm - N/A   Clear
3:56 AM 64.4 °F - 53.6 °F 68% 29.97 in 10.0 mi SE 4.6 mph - N/A   Clear
4:15 AM 64.4 °F - 53.6 °F 68% 29.97 in 10.0 mi ESE 3.5 mph - N/A   Clear
4:36 AM 64.4 °F - 53.6 °F 68% 29.96 in 10.0 mi SE 4.6 mph - N/A   Clear
4:55 AM 64.4 °F - 53.6 °F 68% 29.97 in 10.0 mi SE 4.6 mph - N/A   Clear
5:15 AM 64.4 °F - 53.6 °F 68% 29.97 in 10.0 mi SE 3.5 mph - N/A   Clear
5:36 AM 62.6 °F - 53.6 °F 72% 29.97 in 10.0 mi SE 3.5 mph - N/A   Clear
5:55 AM 62.6 °F - 53.6 °F 72% 29.97 in 10.0 mi SE 3.5 mph - N/A   Clear
6:15 AM 62.6 °F - 53.6 °F 72% 29.97 in 10.0 mi SE 3.5 mph - N/A   Clear
6:36 AM 62.6 °F - 53.6 °F 72% 29.96 in 10.0 mi SE 3.5 mph - N/A   Clear
6:55 AM 62.6 °F - 53.6 °F 72% 29.96 in 10.0 mi SE 3.5 mph - N/A   Clear
7:16 AM 64.4 °F - 53.6 °F 68% 29.95 in 10.0 mi SE 4.6 mph - N/A   Clear
7:35 AM 64.4 °F - 53.6 °F 68% 29.95 in 10.0 mi SE 3.5 mph - N/A   Clear
7:55 AM 66.2 °F - 55.4 °F 68% 29.95 in 10.0 mi SSE 3.5 mph - N/A   Clear
8:15 AM 66.2 °F - 55.4 °F 68% 29.96 in 10.0 mi SE 3.5 mph - N/A   Clear
8:35 AM 69.8 °F - 57.2 °F 64% 29.95 in 10.0 mi SSE 4.6 mph - N/A   Clear
8:56 AM 69.8 °F - 57.2 °F 64% 29.95 in 10.0 mi South 6.9 mph - N/A   Clear
9:15 AM 71.6 °F - 59.0 °F 64% 29.95 in 10.0 mi South 5.8 mph - N/A   Clear
9:35 AM 73.4 °F - 60.8 °F 65% 29.95 in 10.0 mi SSE 4.6 mph - N/A   Clear
9:56 AM 73.4 °F - 60.8 °F 65% 29.95 in 10.0 mi SSE 4.6 mph - N/A   Clear
10:15 AM 75.2 °F - 60.8 °F 61% 29.95 in 10.0 mi SSE 6.9 mph - N/A   Clear
10:35 AM 77.0 °F - 62.6 °F 61% 29.94 in 10.0 mi SSE 5.8 mph - N/A   Clear
10:55 AM 77.0 °F - 62.6 °F 61% 29.94 in 10.0 mi Calm Calm - N/A   Clear
11:15 AM 78.8 °F - 62.6 °F 57% 29.94 in 10.0 mi SE 4.6 mph - N/A   Clear
11:36 AM 80.6 °F 82.3 °F 64.4 °F 58% 29.93 in 10.0 mi SE 4.6 mph - N/A   Clear
11:55 AM 80.6 °F 82.3 °F 64.4 °F 58% 29.93 in 10.0 mi South 8.1 mph - N/A   Scattered Clouds
12:15 PM 80.6 °F 82.3 °F 64.4 °F 58% 29.93 in 10.0 mi SSW 6.9 mph - N/A   Clear
12:36 PM 82.4 °F 83.9 °F 64.4 °F 54% 29.92 in 10.0 mi South 8.1 mph - N/A   Scattered Clouds
12:55 PM 82.4 °F 83.9 °F 64.4 °F 54% 29.92 in 10.0 mi South 6.9 mph - N/A   Scattered Clouds
1:16 PM 82.4 °F 83.9 °F 64.4 °F 54% 29.91 in 10.0 mi South 6.9 mph - N/A   Clear
1:35 PM 82.4 °F 83.9 °F 64.4 °F 54% 29.90 in 10.0 mi South 10.4 mph - N/A   Scattered Clouds
1:55 PM 82.4 °F 83.9 °F 64.4 °F 54% 29.90 in 10.0 mi SW 8.1 mph - N/A   Scattered Clouds
2:16 PM 84.2 °F 86.6 °F 66.2 °F 55% 29.89 in 10.0 mi South 5.8 mph 9.2 mph N/A   Scattered Clouds
2:35 PM 84.2 °F 86.6 °F 66.2 °F 55% 29.89 in 10.0 mi SSW 6.9 mph - N/A   Clear
2:55 PM 84.2 °F 86.6 °F 66.2 °F 55% 29.89 in 10.0 mi South 9.2 mph - N/A   Clear
3:16 PM 84.2 °F 86.6 °F 66.2 °F 55% 29.89 in 10.0 mi SSW 6.9 mph - N/A   Clear
3:35 PM 86.0 °F 88.2 °F 66.2 °F 51% 29.88 in 10.0 mi SW 8.1 mph - N/A   Scattered Clouds
3:55 PM 84.2 °F 86.6 °F 66.2 °F 55% 29.88 in 10.0 mi SSW 5.8 mph - N/A   Scattered Clouds
4:15 PM 84.2 °F 86.6 °F 66.2 °F 55% 29.88 in 10.0 mi SSW 6.9 mph - N/A   Clear
4:35 PM 84.2 °F 86.6 °F 66.2 °F 55% 29.87 in 10.0 mi SSW 5.8 mph - N/A   Clear
4:56 PM 84.2 °F 86.6 °F 66.2 °F 55% 29.87 in 10.0 mi SW 4.6 mph - N/A   Scattered Clouds
5:15 PM 84.2 °F 86.6 °F 66.2 °F 55% 29.87 in 10.0 mi SW 8.1 mph - N/A   Scattered Clouds
5:35 PM 84.2 °F 85.6 °F 64.4 °F 51% 29.87 in 10.0 mi WSW 4.6 mph - N/A   Clear
5:56 PM 84.2 °F 86.6 °F 66.2 °F 55% 29.87 in 10.0 mi WSW 5.8 mph - N/A   Clear
6:15 PM 84.2 °F 86.6 °F 66.2 °F 55% 29.86 in 10.0 mi SSW 5.8 mph - N/A   Clear
6:36 PM 84.2 °F 86.6 °F 66.2 °F 55% 29.85 in 10.0 mi SSW 6.9 mph - N/A   Clear
6:55 PM 82.4 °F 84.6 °F 66.2 °F 58% 29.85 in 10.0 mi South 3.5 mph - N/A   Clear
7:15 PM 82.4 °F 83.9 °F 64.4 °F 54% 29.85 in 10.0 mi South 3.5 mph - N/A   Clear
7:36 PM 80.6 °F 82.3 °F 64.4 °F 58% 29.85 in 10.0 mi South 3.5 mph - N/A   Clear
7:55 PM 78.8 °F - 64.4 °F 61% 29.85 in 10.0 mi Calm Calm - N/A   Scattered Clouds
8:16 PM 77.0 °F - 64.4 °F 65% 29.85 in 10.0 mi Calm Calm - N/A   Clear
8:35 PM 77.0 °F - 64.4 °F 65% 29.85 in 10.0 mi Calm Calm - N/A   Clear
8:55 PM 77.0 °F - 64.4 °F 65% 29.86 in 10.0 mi South 3.5 mph - N/A   Clear
9:16 PM 77.0 °F - 64.4 °F 65% 29.86 in 10.0 mi South 3.5 mph - N/A   Clear
9:35 PM 75.2 °F - 62.6 °F 65% 29.86 in 10.0 mi Calm Calm - N/A   Clear
9:55 PM 75.2 °F - 62.6 °F 65% 29.86 in 10.0 mi Calm Calm - N/A   Clear
10:16 PM 75.2 °F - 62.6 °F 65% 29.86 in 10.0 mi Calm Calm - N/A   Clear
10:35 PM 75.2 °F - 62.6 °F 65% 29.86 in 10.0 mi South 3.5 mph - N/A   Clear
10:56 PM 73.4 °F - 62.6 °F 69% 29.85 in 10.0 mi South 3.5 mph - N/A   Clear
11:15 PM 73.4 °F - 62.6 °F 69% 29.85 in 10.0 mi South 3.5 mph - N/A   Clear
11:34 PM 73.4 °F - 62.6 °F 69% 29.85 in 10.0 mi SSW 3.5 mph - N/A   Clear